Location: Heilwood
(40.6210°N, 78.9150°W)
Time: 01:10:48
(UTC-04:00)

BREEZE-M DEB (TANK) - Visible Passes

Search period start: 23 October 2014 00:00
Search period end: 02 November 2014 00:00
Orbit: 281 x 16045 km, 49.5° (Epoch: 21 October)

Date Brightness Start Highest point End Pass type
(mag) Time Alt. Az. Time Alt. Az. Time Alt. Az.
23 Oct 8.6 00:11:03 10° NW 02:13:24 41° W 02:26:34 40° W visible
23 Oct 8.4 18:39:39 10° W 20:30:37 79° NNE 21:50:04 46° ESE visible
24 Oct 8.7 00:30:43 10° NW 02:25:02 36° W 02:40:57 35° W visible
24 Oct 8.3 18:55:50 10° W 20:58:29 81° NNE 22:04:29 50° ESE visible
25 Oct 8.7 00:50:47 10° NW 02:36:08 32° W 02:55:23 30° W visible
25 Oct 8.3 19:12:08 10° W 21:23:23 84° NE 22:18:57 54° ESE visible
26 Oct 8.8 01:11:25 10° NW 02:46:46 27° WNW 03:09:53 25° W visible
26 Oct 8.3 19:28:34 10° W 21:45:49 87° NE 22:33:29 57° SE visible
27 Oct 8.9 01:32:52 10° NW 02:57:00 23° WNW 03:24:25 21° W visible
27 Oct 8.2 19:45:07 10° WNW 22:06:20 89° SW 22:48:04 60° SE visible
28 Oct 8.9 01:55:39 10° NW 03:06:54 19° WNW 03:39:01 16° W visible
28 Oct 8.2 20:01:47 10° WNW 22:25:19 85° SW 23:02:43 61° SSE visible
29 Oct 9.0 02:20:47 10° NW 03:16:30 16° WNW 03:53:41 12° W visible
29 Oct 8.2 20:18:33 10° WNW 22:43:02 81° WSW 23:17:25 61° S visible
30 Oct 9.0 02:51:31 10° NW 03:25:52 12° WNW 03:55:54 10° WNW visible
30 Oct 8.8 15:14:06 10° SW 15:48:49 88° SE 18:34:39 10° E visible
30 Oct 8.2 20:35:25 10° WNW 22:59:40 76° WSW 23:32:11 60° S visible
31 Oct 8.8 15:28:45 10° SW 16:06:25 88° NW 18:53:00 10° E visible
31 Oct 8.2 20:52:23 10° WNW 23:15:20 71° WSW 23:47:00 58° SSW visible
01 Nov 8.7 15:43:29 10° WSW 16:24:50 84° NNW 19:10:54 10° E visible
01 Nov 8.3 21:09:27 10° WNW 23:30:07 66° WSW 00:00:00 56° SSW visible
